owner,sensor,date,latitude,longitude,vertical_datum,direction_of_sea_water_velocity,sea_water_speed,upward_sea_water_velocity,qcFlag 
TABS,ioos:station:wmo:42043:1,2005-10-11T14:00:00Z,28.9818,-94.9186,2.0,303.2280473,4.124330249,-99999.0,'11133222,11111222,99999999' 
TABS,ioos:station:wmo:42043:1,2005-10-11T14:30:00Z,28.9818,-94.9186,2.0,248.2121747,22.87395244,-99999.0,'11111222,11111222,99999999' 
TABS,ioos:station:wmo:42043:1,2005-10-11T15:00:00Z,28.9818,-94.9186,2.0,254.2697693,25.19347932,-99999.0,'11111222,11111222,99999999' 
TABS,ioos:station:wmo:42043:1,2005-10-11T15:30:00Z,28.9818,-94.9186,2.0,259.5596855,24.28197686,-99999.0,'11111222,11111222,99999999' 
TABS,ioos:station:wmo:42043:1,2005-10-11T16:00:00Z,28.9818,-94.9186,2.0,251.2749381,25.01393612,-99999.0,'11111222,11111222,99999999' 
TABS,ioos:station:wmo:42043:1,2005-10-11T16:30:00Z,28.9818,-94.9186,2.0,252.6662367,24.83795684,-99999.0,'11111222,11111222,99999999' 
TABS,ioos:station:wmo:42043:1,2005-10-11T17:00:00Z,28.9818,-94.9186,2.0,253.2252283,28.48194691,-99999.0,'11111222,11111222,99999999' 
TABS,ioos:station:wmo:42043:1,2005-10-11T17:30:00Z,28.9818,-94.9186,2.0,249.9176486,30.69626199,-99999.0,'11111222,11111222,99999999' 
TABS,ioos:station:wmo:42043:1,2005-10-11T18:00:00Z,28.9818,-94.9186,2.0,245.2572383,31.77718679,-99999.0,'11111222,11111222,99999999' 
TABS,ioos:station:wmo:42043:1,2005-10-11T18:30:00Z,28.9818,-94.9186,2.0,246.5455093,32.38574069,-99999.0,'11111222,11111222,99999999' 
TABS,ioos:station:wmo:42043:1,2005-10-11T19:00:00Z,28.9818,-94.9186,2.0,243.921415,30.52790199,-99999.0,'11111222,11111222,99999999' 
TABS,ioos:station:wmo:42043:1,2005-10-11T19:30:00Z,28.9818,-94.9186,2.0,244.7901224,32.70493847,-99999.0,'11111222,11111222,99999999' 
TABS,ioos:station:wmo:42043:1,2005-10-11T20:00:00Z,28.9818,-94.9186,2.0,242.0443345,26.17417238,-99999.0,'11111222,11111222,99999999' 
TABS,ioos:station:wmo:42043:1,2005-10-11T20:30:00Z,28.9818,-94.9186,2.0,245.6687878,23.05797259,-99999.0,'11111222,11111222,99999999' 
TABS,ioos:station:wmo:42043:1,2005-10-11T21:00:00Z,28.9818,-94.9186,2.0,255.236033,23.30955169,-99999.0,'11111222,11111222,99999999' 
TABS,ioos:station:wmo:42043:1,2005-10-11T21:30:00Z,28.9818,-94.9186,2.0,257.6383813,18.17125752,-99999.0,'11111222,11111222,99999999' 
TABS,ioos:station:wmo:42043:1,2005-10-11T22:00:00Z,28.9818,-94.9186,2.0,256.6087345,16.36491674,-99999.0,'11111222,11111222,99999999' 
TABS,ioos:station:wmo:42043:1,2005-10-11T22:30:00Z,28.9818,-94.9186,2.0,264.2446452,11.56830584,-99999.0,'11111222,11111222,99999999' 
TABS,ioos:station:wmo:42043:1,2005-10-11T23:00:00Z,28.9818,-94.9186,2.0,261.6008981,9.653527853,-99999.0,'11133222,11111222,99999999' 
TABS,ioos:station:wmo:42043:1,2005-10-11T23:30:00Z,28.9818,-94.9186,2.0,278.9469297,4.565544874,-99999.0,'11133222,11111222,99999999' 
TABS,ioos:station:wmo:42043:1,2005-10-12T00:00:00Z,28.9818,-94.9186,2.0,249.8506658,7.083509017,-99999.0,'11133222,11111222,99999999' 
TABS,ioos:station:wmo:42043:1,2005-10-12T00:30:00Z,28.9818,-94.9186,2.0,250.3278643,12.8924474,-99999.0,'11111222,11111222,99999999' 
TABS,ioos:station:wmo:42043:1,2005-10-12T01:00:00Z,28.9818,-94.9186,2.0,264.259506,5.799077513,-99999.0,'11133222,11111222,99999999' 
TABS,ioos:station:wmo:42043:1,2005-10-12T01:30:00Z,28.9818,-94.9186,2.0,275.8232265,6.6040745,-99999.0,'11133222,11111222,99999999' 
TABS,ioos:station:wmo:42043:1,2005-10-12T02:00:00Z,28.9818,-94.9186,2.0,281.5075882,6.265947654,-99999.0,'11133222,11111222,99999999' 
TABS,ioos:station:wmo:42043:1,2005-10-12T02:30:00Z,28.9818,-94.9186,2.0,344.4633992,4.815983804,-99999.0,'11133222,11111222,99999999' 
TABS,ioos:station:wmo:42043:1,2005-10-12T03:00:00Z,28.9818,-94.9186,2.0,316.1260678,6.478348555,-99999.0,'11133222,11111222,99999999' 
TABS,ioos:station:wmo:42043:1,2005-10-12T03:30:00Z,28.9818,-94.9186,2.0,333.4352214,4.405053916,-99999.0,'11133222,11111222,99999999' 
TABS,ioos:station:wmo:42043:1,2005-10-12T04:00:00Z,28.9818,-94.9186,2.0,325.2790115,5.547900504,-99999.0,'11133222,11111222,99999999' 
TABS,ioos:station:wmo:42043:1,2005-10-12T04:30:00Z,28.9818,-94.9186,2.0,359.3874462,3.740213898,-99999.0,'11133222,11144222,99999999' 
TABS,ioos:station:wmo:42043:1,2005-10-12T05:00:00Z,28.9818,-94.9186,2.0,327.0645194,4.63492179,-99999.0,'11133222,11111222,99999999' 
TABS,ioos:station:wmo:42043:1,2005-10-12T05:30:00Z,28.9818,-94.9186,2.0,254.918823,1.72956642,-99999.0,'11133222,11111222,99999999' 
TABS,ioos:station:wmo:42043:1,2005-10-12T06:00:00Z,28.9818,-94.9186,2.0,321.1704764,2.105231579,-99999.0,'11133222,11111222,99999999' 
TABS,ioos:station:wmo:42043:1,2005-10-12T06:30:00Z,28.9818,-94.9186,2.0,327.8290686,2.197384809,-99999.0,'11133222,11111222,99999999' 
TABS,ioos:station:wmo:42043:1,2005-10-12T07:00:00Z,28.9818,-94.9186,2.0,281.4823854,2.612278699,-99999.0,'11133222,11111222,99999999' 
TABS,ioos:station:wmo:42043:1,2005-10-12T07:30:00Z,28.9818,-94.9186,2.0,254.1043479,1.570031847,-99999.0,'11133222,11111222,99999999' 
TABS,ioos:station:wmo:42043:1,2005-10-12T08:00:00Z,28.9818,-94.9186,2.0,37.26275055,2.62606169,-99999.0,'11133222,11111222,99999999' 
TABS,ioos:station:wmo:42043:1,2005-10-12T08:30:00Z,28.9818,-94.9186,2.0,38.50300807,4.561852694,-99999.0,'11133222,11111222,99999999' 
TABS,ioos:station:wmo:42043:1,2005-10-12T09:00:00Z,28.9818,-94.9186,2.0,58.83691188,5.913307027,-99999.0,'11133222,11111222,99999999' 
TABS,ioos:station:wmo:42043:1,2005-10-12T09:30:00Z,28.9818,-94.9186,2.0,40.77879549,5.955854263,-99999.0,'11133222,11111222,99999999' 
TABS,ioos:station:wmo:42043:1,2005-10-12T10:00:00Z,28.9818,-94.9186,2.0,50.27288389,5.616983176,-99999.0,'11133222,11111222,99999999' 
TABS,ioos:station:wmo:42043:1,2005-10-12T10:30:00Z,28.9818,-94.9186,2.0,77.90527121,5.727128425,-99999.0,'11133222,11111222,99999999' 
TABS,ioos:station:wmo:42043:1,2005-10-12T11:00:00Z,28.9818,-94.9186,2.0,87.98259221,5.113169272,-99999.0,'11133222,11111222,99999999' 
TABS,ioos:station:wmo:42043:1,2005-10-12T11:30:00Z,28.9818,-94.9186,2.0,71.08564401,4.534864937,-99999.0,'11133222,11111222,99999999' 
TABS,ioos:station:wmo:42043:1,2005-10-12T12:00:00Z,28.9818,-94.9186,2.0,79.07722082,5.224653099,-99999.0,'11133222,11111222,99999999' 
TABS,ioos:station:wmo:42043:1,2005-10-12T12:30:00Z,28.9818,-94.9186,2.0,80.09400514,4.88279633,-99999.0,'11133222,11111222,99999999' 
TABS,ioos:station:wmo:42043:1,2005-10-12T13:00:00Z,28.9818,-94.9186,2.0,82.92911235,7.879930203,-99999.0,'11133222,11111222,99999999' 
TABS,ioos:station:wmo:42043:1,2005-10-12T13:30:00Z,28.9818,-94.9186,2.0,99.29328687,6.687779901,-99999.0,'11133222,11111222,99999999' 
TABS,ioos:station:wmo:42043:1,2005-10-12T14:00:00Z,28.9818,-94.9186,2.0,108.5330706,5.53715631,-99999.0,'11133222,11111222,99999999' 
TABS,ioos:station:wmo:42043:1,2005-10-12T14:30:00Z,28.9818,-94.9186,2.0,172.1040429,2.766224864,-99999.0,'11133222,11111222,99999999' 
TABS,ioos:station:wmo:42043:1,2005-10-12T15:00:00Z,28.9818,-94.9186,2.0,231.4231397,3.22342985,-99999.0,'11133222,11111222,99999999' 
TABS,ioos:station:wmo:42043:1,2005-10-12T15:30:00Z,28.9818,-94.9186,2.0,237.0111346,4.756910762,-99999.0,'11133222,11111222,99999999' 
TABS,ioos:station:wmo:42043:1,2005-10-12T16:00:00Z,28.9818,-94.9186,2.0,238.0496823,7.672268243,-99999.0,'11133222,11111222,99999999' 
TABS,ioos:station:wmo:42043:1,2005-10-12T16:30:00Z,28.9818,-94.9186,2.0,257.6528355,6.827920621,-99999.0,'11133222,11111222,99999999' 
TABS,ioos:station:wmo:42043:1,2005-10-12T17:00:00Z,28.9818,-94.9186,2.0,264.8841285,9.196629817,-99999.0,'11133222,11111222,99999999' 
TABS,ioos:station:wmo:42043:1,2005-10-12T17:30:00Z,28.9818,-94.9186,2.0,265.752543,13.90819183,-99999.0,'11111222,11111222,99999999' 
TABS,ioos:station:wmo:42043:1,2005-10-12T18:00:00Z,28.9818,-94.9186,2.0,258.3379906,15.33657067,-99999.0,'11111222,11111222,99999999' 
TABS,ioos:station:wmo:42043:1,2005-10-12T18:30:00Z,28.9818,-94.9186,2.0,264.5678873,15.74067978,-99999.0,'11111222,11111222,99999999' 
TABS,ioos:station:wmo:42043:1,2005-10-12T19:00:00Z,28.9818,-94.9186,2.0,262.0497774,16.6298196,-99999.0,'11111222,11111222,99999999' 
TABS,ioos:station:wmo:42043:1,2005-10-12T19:30:00Z,28.9818,-94.9186,2.0,273.0418799,14.70070747,-99999.0,'11111222,11111222,99999999' 
TABS,ioos:station:wmo:42043:1,2005-10-12T20:00:00Z,28.9818,-94.9186,2.0,270.5803783,18.77096162,-99999.0,'11111222,11111222,99999999' 
TABS,ioos:station:wmo:42043:1,2005-10-12T20:30:00Z,28.9818,-94.9186,2.0,271.2897038,16.4441631,-99999.0,'11111222,11111222,99999999' 
TABS,ioos:station:wmo:42043:1,2005-10-12T21:00:00Z,28.9818,-94.9186,2.0,275.1663579,18.21398364,-99999.0,'11111222,11111222,99999999' 
TABS,ioos:station:wmo:42043:1,2005-10-12T21:30:00Z,28.9818,-94.9186,2.0,284.3096712,19.34001034,-99999.0,'11111222,11111222,99999999' 
TABS,ioos:station:wmo:42043:1,2005-10-12T22:00:00Z,28.9818,-94.9186,2.0,282.2840778,16.733084,-99999.0,'11111222,11111222,99999999' 
TABS,ioos:station:wmo:42043:1,2005-10-12T22:30:00Z,28.9818,-94.9186,2.0,287.3917055,16.49401407,-99999.0,'11111222,11111222,99999999' 
TABS,ioos:station:wmo:42043:1,2005-10-12T23:00:00Z,28.9818,-94.9186,2.0,293.536812,14.47415973,-99999.0,'11111222,11111222,99999999' 
TABS,ioos:station:wmo:42043:1,2005-10-12T23:30:00Z,28.9818,-94.9186,2.0,311.2350847,13.24441392,-99999.0,'11111222,11111222,99999999' 
TABS,ioos:station:wmo:42043:1,2005-10-13T00:00:00Z,28.9818,-94.9186,2.0,329.6476567,15.43575071,-99999.0,'11111222,11111222,99999999' 
TABS,ioos:station:wmo:42043:1,2005-10-13T00:30:00Z,28.9818,-94.9186,2.0,319.9465442,14.18789977,-99999.0,'11111222,11111222,99999999' 
TABS,ioos:station:wmo:42043:1,2005-10-13T01:00:00Z,28.9818,-94.9186,2.0,335.7589871,15.44156728,-99999.0,'11111222,11111222,99999999' 
TABS,ioos:station:wmo:42043:1,2005-10-13T01:30:00Z,28.9818,-94.9186,2.0,338.0495388,15.67645368,-99999.0,'11111222,11111222,99999999' 
TABS,ioos:station:wmo:42043:1,2005-10-13T02:00:00Z,28.9818,-94.9186,2.0,347.3351763,13.68292732,-99999.0,'11111222,11111222,99999999' 
TABS,ioos:station:wmo:42043:1,2005-10-13T02:30:00Z,28.9818,-94.9186,2.0,10.25093296,13.26167787,-99999.0,'11111222,11111222,99999999' 
TABS,ioos:station:wmo:42043:1,2005-10-13T03:00:00Z,28.9818,-94.9186,2.0,18.50373368,13.2025187,-99999.0,'11111222,11111222,99999999' 
TABS,ioos:station:wmo:42043:1,2005-10-13T03:30:00Z,28.9818,-94.9186,2.0,67.57377563,20.26242335,-99999.0,'11111222,11111222,99999999' 
TABS,ioos:station:wmo:42043:1,2005-10-13T04:00:00Z,28.9818,-94.9186,2.0,69.09680651,17.76951322,-99999.0,'11111222,11111222,99999999' 
TABS,ioos:station:wmo:42043:1,2005-10-13T04:30:00Z,28.9818,-94.9186,2.0,73.54200762,18.88371256,-99999.0,'11111222,11111222,99999999' 
TABS,ioos:station:wmo:42043:1,2005-10-13T05:00:00Z,28.9818,-94.9186,2.0,80.16691488,16.51258005,-99999.0,'11111222,11111222,99999999' 
TABS,ioos:station:wmo:42043:1,2005-10-13T05:30:00Z,28.9818,-94.9186,2.0,87.40509248,17.00743955,-99999.0,'11111222,11111222,99999999' 
TABS,ioos:station:wmo:42043:1,2005-10-13T06:00:00Z,28.9818,-94.9186,2.0,95.42198764,14.81629171,-99999.0,'11111222,11111222,99999999' 
TABS,ioos:station:wmo:42043:1,2005-10-13T06:30:00Z,28.9818,-94.9186,2.0,104.6323288,14.68632697,-99999.0,'11111222,11111222,99999999' 
TABS,ioos:station:wmo:42043:1,2005-10-13T07:00:00Z,28.9818,-94.9186,2.0,114.4154913,11.68496898,-99999.0,'11111222,11111222,99999999' 
TABS,ioos:station:wmo:42043:1,2005-10-13T07:30:00Z,28.9818,-94.9186,2.0,131.2374358,13.5774298,-99999.0,'11111222,11111222,99999999' 
TABS,ioos:station:wmo:42043:1,2005-10-13T08:00:00Z,28.9818,-94.9186,2.0,137.7100915,14.35618334,-99999.0,'11111222,11111222,99999999' 
TABS,ioos:station:wmo:42043:1,2005-10-13T08:30:00Z,28.9818,-94.9186,2.0,146.0875343,12.86914139,-99999.0,'11111222,11111222,99999999' 
TABS,ioos:station:wmo:42043:1,2005-10-13T09:00:00Z,28.9818,-94.9186,2.0,158.6374695,14.0556928,-99999.0,'11111222,11111222,99999999' 
TABS,ioos:station:wmo:42043:1,2005-10-13T09:30:00Z,28.9818,-94.9186,2.0,158.4141748,17.26050405,-99999.0,'11111222,11111222,99999999' 
TABS,ioos:station:wmo:42043:1,2005-10-13T10:00:00Z,28.9818,-94.9186,2.0,161.4187218,17.35463627,-99999.0,'11111222,11111222,99999999' 
TABS,ioos:station:wmo:42043:1,2005-10-13T10:30:00Z,28.9818,-94.9186,2.0,173.455826,16.14519123,-99999.0,'11111222,11111222,99999999' 
TABS,ioos:station:wmo:42043:1,2005-10-13T11:00:00Z,28.9818,-94.9186,2.0,178.7293282,14.88365882,-99999.0,'11111222,11111222,99999999' 
TABS,ioos:station:wmo:42043:1,2005-10-13T11:30:00Z,28.9818,-94.9186,2.0,176.7342093,13.34166406,-99999.0,'11111222,11111222,99999999' 
TABS,ioos:station:wmo:42043:1,2005-10-13T12:00:00Z,28.9818,-94.9186,2.0,181.6740306,11.29482182,-99999.0,'11111222,11111222,99999999' 
TABS,ioos:station:wmo:42043:1,2005-10-13T12:30:00Z,28.9818,-94.9186,2.0,193.4373872,8.82150214,-99999.0,'11133222,11111222,99999999' 
TABS,ioos:station:wmo:42043:1,2005-10-13T13:00:00Z,28.9818,-94.9186,2.0,188.5804912,7.372523313,-99999.0,'11133222,11111222,99999999' 
TABS,ioos:station:wmo:42043:1,2005-10-13T13:30:00Z,28.9818,-94.9186,2.0,197.2970893,8.441782987,-99999.0,'11133222,11111222,99999999' 
TABS,ioos:station:wmo:42043:1,2005-10-13T14:00:00Z,28.9818,-94.9186,2.0,207.5087279,7.057988382,-99999.0,'11133222,11111222,99999999' 
TABS,ioos:station:wmo:42043:1,2005-10-13T14:30:00Z,28.9818,-94.9186,2.0,210.7056549,9.909288572,-99999.0,'11133222,11111222,99999999' 
TABS,ioos:station:wmo:42043:1,2005-10-13T15:00:00Z,28.9818,-94.9186,2.0,209.5483361,10.13865869,-99999.0,'11111222,11111222,99999999' 
TABS,ioos:station:wmo:42043:1,2005-10-13T15:30:00Z,28.9818,-94.9186,2.0,215.1117186,10.1707866,-99999.0,'11111222,11111222,99999999' 
TABS,ioos:station:wmo:42043:1,2005-10-13T16:00:00Z,28.9818,-94.9186,2.0,201.3427146,10.90809333,-99999.0,'11111222,11111222,99999999' 
TABS,ioos:station:wmo:42043:1,2005-10-13T16:30:00Z,28.9818,-94.9186,2.0,210.873579,12.0237806,-99999.0,'11111222,11111222,99999999' 
TABS,ioos:station:wmo:42043:1,2005-10-13T17:00:00Z,28.9818,-94.9186,2.0,207.5480761,9.90276729,-99999.0,'11133222,11111222,99999999' 
TABS,ioos:station:wmo:42043:1,2005-10-13T17:30:00Z,28.9818,-94.9186,2.0,222.5614716,10.9700866,-99999.0,'11111222,11111222,99999999' 
TABS,ioos:station:wmo:42043:1,2005-10-13T18:00:00Z,28.9818,-94.9186,2.0,215.8856975,12.81188901,-99999.0,'11111222,11111222,99999999' 
TABS,ioos:station:wmo:42043:1,2005-10-13T18:30:00Z,28.9818,-94.9186,2.0,212.5218958,12.92720001,-99999.0,'11111222,11111222,99999999' 
TABS,ioos:station:wmo:42043:1,2005-10-13T19:00:00Z,28.9818,-94.9186,2.0,209.7672187,12.56844064,-99999.0,'11111222,11111222,99999999' 
TABS,ioos:station:wmo:42043:1,2005-10-13T19:30:00Z,28.9818,-94.9186,2.0,239.0015162,14.29097967,-99999.0,'11111222,11111222,99999999' 
TABS,ioos:station:wmo:42043:1,2005-10-13T20:00:00Z,28.9818,-94.9186,2.0,246.7157271,18.51816676,-99999.0,'11111222,11111222,99999999' 
TABS,ioos:station:wmo:42043:1,2005-10-13T20:30:00Z,28.9818,-94.9186,2.0,248.1525615,16.31148368,-99999.0,'11111222,11111222,99999999' 
TABS,ioos:station:wmo:42043:1,2005-10-13T21:00:00Z,28.9818,-94.9186,2.0,246.4884778,23.58823859,-99999.0,'11111222,11111222,99999999' 
TABS,ioos:station:wmo:42043:1,2005-10-13T21:30:00Z,28.9818,-94.9186,2.0,263.6426298,49.04153852,-99999.0,'11111222,11111222,99999999' 
TABS,ioos:station:wmo:42043:1,2005-10-13T22:00:00Z,28.9818,-94.9186,2.0,264.1470014,46.97485498,-99999.0,'11111222,11111222,99999999' 
TABS,ioos:station:wmo:42043:1,2005-10-13T22:30:00Z,28.9818,-94.9186,2.0,267.0274471,46.67278115,-99999.0,'11111222,11111222,99999999' 
TABS,ioos:station:wmo:42043:1,2005-10-13T23:00:00Z,28.9818,-94.9186,2.0,270.662004,38.97259807,-99999.0,'11111222,11111222,99999999' 
TABS,ioos:station:wmo:42043:1,2005-10-13T23:30:00Z,28.9818,-94.9186,2.0,271.0537462,39.16661844,-99999.0,'11111222,11111222,99999999' 
TABS,ioos:station:wmo:42043:1,2005-10-14T00:00:00Z,28.9818,-94.9186,2.0,271.0439979,37.3361929,-99999.0,'11111222,11111222,99999999' 
TABS,ioos:station:wmo:42043:1,2005-10-14T00:30:00Z,28.9818,-94.9186,2.0,274.3872388,36.99839186,-99999.0,'11111222,11111222,99999999' 
TABS,ioos:station:wmo:42043:1,2005-10-14T01:00:00Z,28.9818,-94.9186,2.0,279.3162733,32.80263709,-99999.0,'11111222,11111222,99999999' 
TABS,ioos:station:wmo:42043:1,2005-10-14T01:30:00Z,28.9818,-94.9186,2.0,280.100494,32.78812132,-99999.0,'11111222,11111222,99999999' 
TABS,ioos:station:wmo:42043:1,2005-10-14T02:00:00Z,28.9818,-94.9186,2.0,283.5881088,32.22184507,-99999.0,'11111222,11111222,99999999' 
TABS,ioos:station:wmo:42043:1,2005-10-14T02:30:00Z,28.9818,-94.9186,2.0,286.7078007,33.56702251,-99999.0,'11111222,11111222,99999999' 
TABS,ioos:station:wmo:42043:1,2005-10-14T03:00:00Z,28.9818,-94.9186,2.0,291.0954448,30.72934265,-99999.0,'11111222,11111222,99999999' 
TABS,ioos:station:wmo:42043:1,2005-10-14T03:30:00Z,28.9818,-94.9186,2.0,292.7167897,30.58235112,-99999.0,'11111222,11111222,99999999' 
TABS,ioos:station:wmo:42043:1,2005-10-14T04:00:00Z,28.9818,-94.9186,2.0,297.3233189,27.38528437,-99999.0,'11111222,11111222,99999999' 
TABS,ioos:station:wmo:42043:1,2005-10-14T04:30:00Z,28.9818,-94.9186,2.0,294.8524059,23.93662466,-99999.0,'11111222,11111222,99999999' 
TABS,ioos:station:wmo:42043:1,2005-10-14T05:00:00Z,28.9818,-94.9186,2.0,304.4525307,21.47711806,-99999.0,'11111222,11111222,99999999' 
TABS,ioos:station:wmo:42043:1,2005-10-14T05:30:00Z,28.9818,-94.9186,2.0,298.2917076,20.63485643,-99999.0,'11111222,11111222,99999999' 
TABS,ioos:station:wmo:42043:1,2005-10-14T06:00:00Z,28.9818,-94.9186,2.0,292.2429031,18.5719412,-99999.0,'11111222,11111222,99999999' 
TABS,ioos:station:wmo:42043:1,2005-10-14T06:30:00Z,28.9818,-94.9186,2.0,287.0819949,19.95005013,-99999.0,'11111222,11111222,99999999' 
TABS,ioos:station:wmo:42043:1,2005-10-14T07:00:00Z,28.9818,-94.9186,2.0,278.7804442,20.57105977,-99999.0,'11111222,11111222,99999999' 
TABS,ioos:station:wmo:42043:1,2005-10-14T07:30:00Z,28.9818,-94.9186,2.0,275.8691865,19.46200658,-99999.0,'11111222,11111222,99999999' 
TABS,ioos:station:wmo:42043:1,2005-10-14T08:00:00Z,28.9818,-94.9186,2.0,266.0565199,18.61406189,-99999.0,'11111222,11111222,99999999' 
TABS,ioos:station:wmo:42043:1,2005-10-14T08:30:00Z,28.9818,-94.9186,2.0,260.0975529,20.99272493,-99999.0,'11111222,11111222,99999999' 
TABS,ioos:station:wmo:42043:1,2005-10-14T09:00:00Z,28.9818,-94.9186,2.0,256.7996985,23.42901193,-99999.0,'11111222,11111222,99999999' 
TABS,ioos:station:wmo:42043:1,2005-10-14T09:30:00Z,28.9818,-94.9186,2.0,241.7409148,36.01195496,-99999.0,'11111222,11111222,99999999' 
TABS,ioos:station:wmo:42043:1,2005-10-14T10:00:00Z,28.9818,-94.9186,2.0,234.9027412,34.45449463,-99999.0,'11111222,11111222,99999999' 
TABS,ioos:station:wmo:42043:1,2005-10-14T10:30:00Z,28.9818,-94.9186,2.0,234.5745566,36.09147406,-99999.0,'11111222,11111222,99999999' 
TABS,ioos:station:wmo:42043:1,2005-10-14T11:00:00Z,28.9818,-94.9186,2.0,235.3648269,33.6415933,-99999.0,'11111222,11111222,99999999' 
TABS,ioos:station:wmo:42043:1,2005-10-14T11:30:00Z,28.9818,-94.9186,2.0,230.6380593,36.84883987,-99999.0,'11111222,11111222,99999999' 
TABS,ioos:station:wmo:42043:1,2005-10-14T12:00:00Z,28.9818,-94.9186,2.0,223.9132979,39.15954162,-99999.0,'11111222,11111222,99999999' 
TABS,ioos:station:wmo:42043:1,2005-10-14T12:30:00Z,28.9818,-94.9186,2.0,226.5243035,37.20698859,-99999.0,'11111222,11111222,99999999' 
TABS,ioos:station:wmo:42043:1,2005-10-14T13:00:00Z,28.9818,-94.9186,2.0,224.0932155,39.77973479,-99999.0,'11111222,11111222,99999999' 
TABS,ioos:station:wmo:42043:1,2005-10-14T13:30:00Z,28.9818,-94.9186,2.0,219.7688894,40.33162531,-99999.0,'11111222,11111222,99999999' 
TABS,ioos:station:wmo:42043:1,2005-10-14T14:00:00Z,28.9818,-94.9186,2.0,221.7402084,37.8065206,-99999.0,'11111222,11111222,99999999' 
TABS,ioos:station:wmo:42043:1,2005-10-14T14:30:00Z,28.9818,-94.9186,2.0,221.8085119,33.66098186,-99999.0,'11111222,11111222,99999999' 
TABS,ioos:station:wmo:42043:1,2005-10-14T15:00:00Z,28.9818,-94.9186,2.0,215.7765885,33.97018104,-99999.0,'11111222,11111222,99999999' 
TABS,ioos:station:wmo:42043:1,2005-10-14T15:30:00Z,28.9818,-94.9186,2.0,212.5283054,32.15425633,-99999.0,'11111222,11111222,99999999' 
TABS,ioos:station:wmo:42043:1,2005-10-14T16:00:00Z,28.9818,-94.9186,2.0,211.4210684,33.06941185,-99999.0,'11111222,11111222,99999999' 
TABS,ioos:station:wmo:42043:1,2005-10-14T16:30:00Z,28.9818,-94.9186,2.0,208.4756391,29.90838846,-99999.0,'11111222,11111222,99999999' 
TABS,ioos:station:wmo:42043:1,2005-10-14T17:00:00Z,28.9818,-94.9186,2.0,213.0041968,32.21929391,-99999.0,'11111222,11111222,99999999' 
TABS,ioos:station:wmo:42043:1,2005-10-14T17:30:00Z,28.9818,-94.9186,2.0,206.7888699,32.01626618,-99999.0,'11111222,11111222,99999999' 
TABS,ioos:station:wmo:42043:1,2005-10-14T18:00:00Z,28.9818,-94.9186,2.0,206.7457289,31.15305442,-99999.0,'11111222,11111222,99999999' 
TABS,ioos:station:wmo:42043:1,2005-10-14T18:30:00Z,28.9818,-94.9186,2.0,201.4270117,30.71280678,-99999.0,'11111222,11111222,99999999' 
TABS,ioos:station:wmo:42043:1,2005-10-14T19:00:00Z,28.9818,-94.9186,2.0,204.240044,29.10625534,-99999.0,'11111222,11111222,99999999' 
TABS,ioos:station:wmo:42043:1,2005-10-14T19:30:00Z,28.9818,-94.9186,2.0,206.6946023,29.60561602,-99999.0,'11111222,11111222,99999999' 
TABS,ioos:station:wmo:42043:1,2005-10-14T20:00:00Z,28.9818,-94.9186,2.0,204.6153673,30.10595456,-99999.0,'11111222,11111222,99999999' 
TABS,ioos:station:wmo:42043:1,2005-10-14T20:30:00Z,28.9818,-94.9186,2.0,203.2011141,26.98215892,-99999.0,'11111222,11111222,99999999' 
TABS,ioos:station:wmo:42043:1,2005-10-14T21:00:00Z,28.9818,-94.9186,2.0,208.4742839,23.89,-99999.0,'11111222,11111222,99999999' 
TABS,ioos:station:wmo:42043:1,2005-10-14T21:30:00Z,28.9818,-94.9186,2.0,225.2217593,21.89219039,-99999.0,'11111222,11111222,99999999' 
TABS,ioos:station:wmo:42043:1,2005-10-14T22:00:00Z,28.9818,-94.9186,2.0,221.6201831,18.23263557,-99999.0,'11111222,11111222,99999999' 
TABS,ioos:station:wmo:42043:1,2005-10-14T22:30:00Z,28.9818,-94.9186,2.0,224.3195947,22.04207114,-99999.0,'11111222,11111222,99999999' 
TABS,ioos:station:wmo:42043:1,2005-10-14T23:00:00Z,28.9818,-94.9186,2.0,222.169395,18.90280932,-99999.0,'11111222,11111222,99999999' 
TABS,ioos:station:wmo:42043:1,2005-10-14T23:30:00Z,28.9818,-94.9186,2.0,216.9096119,17.18400419,-99999.0,'11111222,11111222,99999999' 
TABS,ioos:station:wmo:42043:1,2005-10-15T00:00:00Z,28.9818,-94.9186,2.0,207.5912425,15.97703352,-99999.0,'11111222,11111222,99999999' 
TABS,ioos:station:wmo:42043:1,2005-10-15T00:30:00Z,28.9818,-94.9186,2.0,202.805768,16.09854652,-99999.0,'11111222,11111222,99999999' 
TABS,ioos:station:wmo:42043:1,2005-10-15T01:00:00Z,28.9818,-94.9186,2.0,205.6065619,13.90581533,-99999.0,'11111222,11111222,99999999' 
TABS,ioos:station:wmo:42043:1,2005-10-15T01:30:00Z,28.9818,-94.9186,2.0,210.1846514,12.11234907,-99999.0,'11111222,11111222,99999999' 
TABS,ioos:station:wmo:42043:1,2005-10-15T02:00:00Z,28.9818,-94.9186,2.0,220.1891094,8.600430222,-99999.0,'11133222,11111222,99999999' 
TABS,ioos:station:wmo:42043:1,2005-10-15T02:30:00Z,28.9818,-94.9186,2.0,230.6303539,6.558239093,-99999.0,'11133222,11111222,99999999' 
TABS,ioos:station:wmo:42043:1,2005-10-15T03:00:00Z,28.9818,-94.9186,2.0,251.1632089,3.159192935,-99999.0,'11133222,11111222,99999999' 
TABS,ioos:station:wmo:42043:1,2005-10-15T03:30:00Z,28.9818,-94.9186,2.0,255.5956222,1.889391436,-99999.0,'11133222,11111222,99999999' 
TABS,ioos:station:wmo:42043:1,2005-10-15T04:00:00Z,28.9818,-94.9186,2.0,297.8673596,0.984123976,-99999.0,'11133222,11111222,99999999' 
TABS,ioos:station:wmo:42043:1,2005-10-15T04:30:00Z,28.9818,-94.9186,2.0,351.407214,2.275543891,-99999.0,'11133222,11111222,99999999' 
TABS,ioos:station:wmo:42043:1,2005-10-15T05:00:00Z,28.9818,-94.9186,2.0,3.140716462,5.658498034,-99999.0,'11133222,11111222,99999999' 
TABS,ioos:station:wmo:42043:1,2005-10-15T05:30:00Z,28.9818,-94.9186,2.0,334.0415019,4.226405092,-99999.0,'11133222,11111222,99999999' 
TABS,ioos:station:wmo:42043:1,2005-10-15T06:00:00Z,28.9818,-94.9186,2.0,343.3010053,3.967316473,-99999.0,'11133222,11111222,99999999' 